Location: Newark
(5.8900°S, 42.6378°W)
Time: 01:02:54
(UTC+00:00)

Vanguard 1 Rocket - Pass Details

Date: 23 October 2019
Orbit: 651 x 4225 km, 34.3° (Epoch: 14 November)

Event Time Altitude Azimuth Distance (km) Brightness Sun altitude
Rises 11:43:42 0° 294° (WNW) 4,281 10.4 47.4°
Reaches altitude 10° 11:48:46 10° 322° (NW) 3,959 10.5 48.6°
Maximum altitude 11:53:03 13° 346° (NNW) 4,269 10.8 49.6°
Drops below altitude 10° 11:58:24 10° 9° (N) 5,147 11.3 51.0°
Sets 12:08:01 0° 33° (NNE) 7,162 12.1 53.3°
